{"data":{"norad_id":69262,"epoch":"2026-09-19T23:22:41.958336Z","epoch_age_seconds":72352,"freshness":"FRESH","line1":"1 69262U 26117AA  26262.97409674  .00018664  00000+0  56138-3 0  9996","line2":"2 69262  53.1581 156.3829 0001677  89.3809 270.7385 15.34442178 17584","mean_motion":15.34442178,"eccentricity":0.0001677,"inclination_deg":53.1581,"raan_deg":156.3829,"arg_perigee_deg":89.3809,"mean_anomaly_deg":270.7385,"bstar":0.00056138,"rev_number":1758,"period_min":93.845178439823,"perigee_km":461.4306932885,"apogee_km":463.72506905965,"semimajor_km":6840.7148811741,"source":"CELESTRAK","updated_at":"2026-09-20T09:00:44.152620Z"}}